Flag for Mexico Weather past 2 weeks in Guadalajara, Jalisco, Mexico

Now
75 °F

Sunny.


Feels Like: 76 °F
Forecast: 50 / 83 °F
Wind: 3 mph from Northwest

Location: Don Miguel / Guadalaj

Current Time: Mar 2, 2015 at 1:00:30 PM

Latest Report: Mar 2, 2015 at 11:52 AM


Visibility: 10 mi

Pressure: 29.93 "Hg

Humidity: 21%

Dew point: 32 °F

Location of GuadalajaraLocation

Historic Weather in Guadalajara — Graph

°F

Guadalajara temperature yesterday

Maximum temperature yesterday: 84 °F (at 2:48 PM)
Minimum temperature yesterday: 43 °F (at 6:54 AM)
Average temperature yesterday: 65 °F

Past Weeks' High & Low Weather Summary

 TemperatureHumidityPressure
High88 °F (Feb 23, 2:52 PM)93% (Feb 18, 6:50 AM)30.30 "Hg (Feb 18, 6:50 AM)
Low41 °F (Feb 27, 7:55 AM)6% (Feb 27, 2:54 PM)29.69 "Hg (Feb 27, 2:54 PM)
Average65 °F45%30.07 "Hg
* Reported Feb 15 11:48 AM — Mar 2 11:52 AM, Guadalajara, Weather by CustomWeather, © 2015

Note: Actual official high and low records may vary slightly from our data, if they occured in-between our weather recording intervals... More about our weather records

Advertising

Guadalajara weather history for previous 24 hours

 ConditionsComfort  
Time TempWeatherWind HumidityBarometerVisibility
11:52 AM
Mon, Mar 2
75 °FSunny.3 mph21%29.93 "Hg10 mi
10:51 AM73 °FSunny.5 mph23%30.28 "Hg10 mi
9:50 AM68 °FSunny.No wind35%30.28 "Hg10 mi
8:52 AM61 °FSunny.No wind52%29.96 "Hg10 mi
7:46 AM50 °FSunny.No wind71%30.26 "Hg10 mi
6:49 AM50 °FClear.No wind71%30.23 "Hg10 mi
5:44 AM50 °FPassing clouds.No wind71%29.95 "Hg10 mi
4:49 AM52 °FPassing clouds.No wind72%30.23 "Hg10 mi
3:49 AM52 °FClear.No wind72%30.23 "Hg10 mi
2:45 AM54 °FClear.6 mph63%29.93 "Hg10 mi
1:46 AM57 °FClear.No wind55%30.25 "Hg10 mi
12:51 AM61 °FClear.3 mph52%30.26 "Hg10 mi
9:53 PM
Sun, Mar 1
68 °FClear.5 mph35%30.23 "Hg10 mi
8:48 PM72 °FClear.13 mph27%29.92 "Hg10 mi
7:52 PM72 °FClear.5 mph25%30.16 "Hg10 mi
6:49 PM77 °FSunny.6 mph19%30.15 "Hg10 mi
5:56 PM82 °FSunny.5 mph17%29.86 "Hg10 mi
4:55 PM82 °FSunny.6 mph15%30.15 "Hg10 mi
2:48 PM84 °FSunny.8 mph15%29.94 "Hg10 mi
1:50 PM81 °FSunny.No wind18%30.22 "Hg10 mi
Weather by CustomWeather, © 2015

See weather overviewHow to use our weather pages